Weather History for Abilene Dyess, TX

Change the Weather History Date:

Monday, April 8, 2013

  Actual Average Record
Temperature  
Mean Temperature 74 °F -  
Max Temperature 85 °F 72 °F 96 °F (2011)
Min Temperature 62 °F 49 °F 35 °F (1997)
Cooling Degree Days 8    
Growing Degree Days 24 (Base 50)    
Moisture  
Dew Point 60 °F    
Average Humidity 66    
Maximum Humidity 89    
Minimum Humidity 37    
Precipitation  
Precipitation 0.00 in - - ()
Sea Level Pressure  
Sea Level Pressure 29.53 in    
Wind  
Wind Speed 22 mph (South)    
Max Wind Speed 26 mph    
Max Gust Speed 36 mph    
Visibility 10 miles    
Events      
Averages and records for this station are not official NWS values.
T = Trace of Precipitation, MM = Missing Value Source: NWS Daily Summary

Daily Weather History Graph

Daily Weather History Graph

Search for Another Location

Airport:

Trip Planner

Search our weather history database for the weather conditions in past years. The results will help you decide how hot, cold, wet, or windy it might be!

Date:

Astronomy

Apr. 08, 2013 Rise Set
Actual Time 7:18 AM CDT 8:04 PM CDT
Civil Twilight 6:53 AM CDT 8:29 PM CDT
Nautical Twilight 6:24 AM CDT 8:58 PM CDT
Astronomical Twilight 5:53 AM CDT 9:29 PM CDT
Moon 6:04 AM CDT (4/8) 6:43 PM CDT (4/8)
Length of Visible Light 13h 35m
Length of Day
12h 46m
Waning Crescent, 3% of the Moon is Illuminated
Apr 8
Waning Crescent
Apr 10
New
Apr 18
First Quarter
Apr 25
Full
May 2
Last Quarter

Hourly Weather History & Observations

Time (CDT) Temp. Heat Index Dew Point Humidity Pressure Visibility Wind Dir Wind Speed Gust Speed Precip Events Conditions
12:58 AM 71.8 °F - 60.1 °F 67% 29.57 in 10.0 mi South 18.4 mph - N/A   Clear
1:58 AM 70.0 °F - 59.9 °F 70% 29.56 in 10.0 mi South 20.7 mph 27.6 mph N/A   Clear
3:58 AM 66.6 °F - 60.3 °F 80% 29.52 in 10.0 mi South 25.3 mph 31.1 mph N/A   Clear
4:58 AM 64.8 °F - 59.9 °F 84% 29.51 in 10.0 mi South 24.2 mph - N/A   Clear
5:58 AM 63.3 °F - 59.7 °F 88% 29.53 in 10.0 mi SSE 20.7 mph - N/A   Clear
6:58 AM 62.8 °F - 59.5 °F 89% 29.53 in 10.0 mi South 18.4 mph - N/A   Clear
7:58 AM 64.0 °F - 60.1 °F 87% 29.55 in 10.0 mi South 23.0 mph 27.6 mph N/A   Clear
8:48 AM 66.2 °F - 60.8 °F 83% 29.68 in 10.0 mi South 19.6 mph 27.6 mph N/A   Mostly Cloudy
8:58 AM 67.5 °F - 60.8 °F 79% 29.56 in 10.0 mi South 20.7 mph 31.1 mph N/A   Scattered Clouds
9:58 AM 69.6 °F - 61.0 °F 74% 29.57 in 10.0 mi South 24.2 mph 35.7 mph N/A   Scattered Clouds
10:43 AM 71.6 °F - 60.8 °F 69% 29.70 in 10.0 mi South 20.7 mph 31.1 mph N/A   Mostly Cloudy
10:58 AM 72.1 °F - 61.2 °F 68% 29.60 in 10.0 mi South 20.7 mph 26.5 mph N/A   Scattered Clouds
11:13 AM 73.4 °F - 60.8 °F 65% 29.70 in 10.0 mi South 20.7 mph 27.6 mph N/A   Overcast
11:58 AM 74.1 °F - 60.8 °F 63% 29.57 in 10.0 mi South 23.0 mph 31.1 mph N/A   Scattered Clouds
12:58 PM 77.7 °F - 61.0 °F 56% 29.55 in 10.0 mi South 23.0 mph 31.1 mph N/A   Clear
1:58 PM 79.9 °F - 60.1 °F 51% 29.52 in 10.0 mi SSW 21.9 mph 26.5 mph N/A   Clear
2:58 PM 81.7 °F 82.0 °F 59.4 °F 47% 29.49 in 10.0 mi South 21.9 mph 26.5 mph N/A   Clear
3:58 PM 84.2 °F 83.8 °F 59.0 °F 42% 29.46 in 10.0 mi South 21.9 mph 28.8 mph N/A   Clear
4:58 PM 84.9 °F 84.2 °F 57.9 °F 40% 29.42 in 10.0 mi South 24.2 mph 31.1 mph N/A   Clear
5:58 PM 85.5 °F 84.5 °F 57.0 °F 38% 29.42 in 10.0 mi SSE 23.0 mph 31.1 mph N/A   Clear
6:58 PM 84.4 °F 83.2 °F 55.2 °F 37% 29.43 in 10.0 mi SSE 21.9 mph 29.9 mph N/A   Clear
7:58 PM 78.8 °F - 61.7 °F 56% 29.44 in 10.0 mi SSE 25.3 mph 29.9 mph N/A   Clear
8:58 PM 74.3 °F - 62.1 °F 65% 29.47 in 10.0 mi SE 24.2 mph 28.8 mph N/A   Clear
9:58 PM 71.4 °F - 61.7 °F 71% 29.48 in 10.0 mi SSE 23.0 mph 34.5 mph N/A   Clear
10:58 PM 69.3 °F - 62.6 °F 79% 29.49 in 10.0 mi SE 23.0 mph 33.4 mph N/A   Clear
11:58 PM 68.0 °F - 62.1 °F 81% 29.49 in 10.0 mi SSE 26.5 mph 31.1 mph N/A   Clear